This demonstration page uses our WeatherBlox Daily Observations layout. Learn more.

Left ArrowRight Arrow

53.62937, 11.41316

Hourly Observations for March 13, 2021

Temp ( °F °C ) Dew Point ( °F °C ) Humidity (%) Winds ( mph kmh ) Pressure ( in mb ) Visibility ( mi km ) Precip ( " mm )
8:50 am 08:50 Mostly Cloudy with Drizzle 41 5 37 3 87 87 SE 12 19 29.30 992 5 8 N/A
9:20 am 09:20 Mostly Cloudy with Light Rain 41 5 39 4 93 93 SSE 10 17 29.27 991 30 48 N/A
9:50 am 09:50 Mostly Cloudy with Light Rain 41 5 39 4 93 93 SSE 8 13 29.24 990 30 48 N/A
10:20 am 10:20 Mostly Cloudy with Light Rain 41 5 39 4 93 93 S 12 19 29.21 989 30 48 N/A
10:50 am 10:50 Mostly Cloudy with Light Rain 41 5 39 4 93 93 SSE 9 15 29.18 988 30 48 N/A
11:20 am 11:20 Mostly Cloudy with Light Rain 43 6 41 5 93 93 S 9 15 29.18 988 30 48 N/A
11:50 am 11:50 Partly Cloudy 43 6 39 4 87 87 S 17 28 29.18 988 30 48 N/A
12:20 pm 12:20 Mostly Sunny 46 8 39 4 76 76 S 14 22 29.18 988 30 48 N/A
12:50 pm 12:50 Partly Cloudy 46 8 37 3 71 71 S 17 28 29.18 988 30 48 N/A
1:20 pm 13:20 Mostly Cloudy with Showers Nearby 48 9 37 3 66 66 SSW 14 22 29.15 987 30 48 N/A
1:50 pm 13:50 Mostly Cloudy with Showers 43 6 39 4 87 87 SSW 17 28 29.18 988 30 48 N/A
2:20 pm 14:20 Partly Cloudy with Showers Nearby 41 5 39 4 93 93 SSW 10 17 29.15 987 30 48 N/A
2:50 pm 14:50 Partly Cloudy with Showers Nearby 45 7 39 4 81 81 S 14 22 29.15 987 30 48 N/A
3:20 pm 15:20 Partly Cloudy 46 8 37 3 71 71 SSW 17 28 29.15 987 30 48 N/A
3:50 pm 15:50 Mostly Cloudy with Light Showers 45 7 36 2 71 71 SSW 16 26 29.15 987 30 48 N/A
4:20 pm 16:20 Mostly Cloudy with Showers Nearby 45 7 36 2 71 71 S 16 26 29.15 987 30 48 N/A
4:50 pm 16:50 Partly Cloudy with Showers Nearby 43 6 37 3 81 81 S 12 19 29.15 987 30 48 N/A
5:20 pm 17:20 Partly Cloudy with Showers Nearby 41 5 37 3 87 87 S 12 19 29.15 987 30 48 N/A
5:50 pm 17:50 Mostly Cloudy with Light Showers 41 5 37 3 87 87 S 9 15 29.15 987 30 48 N/A
6:20 pm 18:20 Mostly Cloudy with Light Showers 41 5 37 3 87 87 S 13 20 29.12 986 30 48 N/A
6:50 pm 18:50 Mostly Cloudy with Light Showers 43 6 37 3 81 81 S 15 24 29.09 985 30 48 N/A
7:20 pm 19:20 Mostly Cloudy with Light Rain 41 5 39 4 93 93 S 15 24 29.12 986 30 48 N/A
7:50 pm 19:50 Mostly Cloudy with Light Rain 41 5 37 3 87 87 S 18 30 29.09 985 30 48 N/A

Powered by AerisWeather